[[{"header":{"parameterUnit":"m.s-1","parameterCategory":1,"la1":30.2991,"la2":30.254,"lo1":-89.0895,"lo2":-89.0444,"dy":0.0017,"dx":0.0017,"nx":28,"ny":28,"refTime":"2023-11-11T03:00:00:Z","depth":0,"parameterNumber":2,"parameterNumberName":"U-component_of_WINDS"},"data":[0,0,0,0,0,0,0,0,0,0,0,0,0,0,0,0,0,0,0,0,0,0,0,0,0,0,0,0,0,0,0,0,0,0,0,0,0,0,0,0,0,0,0,0,0,0,0,0,0,0,0,0,0,0,0,0,0,0,-3.4683,-3.4682,0,-3.4639,-3.4639,-3.4638,-3.4533,-3.453,-3.4528,-3.4526,-3.4484,-3.4484,-3.4485,0,0,0,0,0,0,0,0,0,0,0,0,0,-3.4676,-3.4676,-3.4683,-3.4682,-3.4682,-3.4639,-3.4639,-3.4638,-3.4533,-3.453,-3.4528,-3.4525,-3.4483,-3.4484,-3.4485,0,0,0,0,0,0,0,0,0,0,0,0,0,-3.466,-3.4676,-3.4683,-3.4624,-3.4618,-3.4639,-3.4639,-3.4638,-3.4534,-3.453,-3.4527,-3.4524,-3.4483,-3.4484,-3.4486,-3.4561,0,0,-3.449,-3.4491,0,0,0,0,0,0,0,0,-3.4661,-3.4661,-3.4633,-3.4628,-3.4622,-3.4588,-3.462,-3.4612,-3.4534,-3.4566,-3.4526,-3.4522,-3.4521,-3.4519,-3.4518,-3.4559,-3.4557,-3.449,-3.4491,-3.4491,-3.4492,0,0,0,0,0,0,0,-3.4662,-3.4662,-3.4665,-3.4633,-3.4626,-3.46,-3.4594,-3.4618,-3.4563,-3.4563,-3.4555,-3.4551,-3.4517,-3.4517,-3.4517,-3.4556,-3.449,-3.4491,-3.4492,-3.4493,-3.4655,-3.4659,0,0,0,0,0,0,-3.4672,-3.4663,-3.4667,-3.4664,-3.4634,-3.4603,-3.4596,-3.4602,-3.4562,-3.4553,-3.4554,-3.4547,-3.4517,-3.4515,-3.4515,-3.4599,-3.4491,-3.4493,-3.4494,-3.4652,-3.4656,-3.466,0,0,0,0,0,0,-3.4672,-3.4673,-3.4669,-3.4662,-3.4659,-3.4607,-3.4614,-3.4603,-3.4603,-3.4556,-3.4545,-3.4564,-3.4514,-3.4513,-3.455,-3.4597,-3.4493,-3.4495,-3.4648,-3.4653,-3.4658,-3.477,0,0,0,0,0,0,-3.4672,-3.4674,-3.4702,-3.4663,-3.466,-3.4705,-3.4617,-3.4605,-3.4605,-3.4595,-3.4562,-3.4554,-3.4511,-3.4548,-3.4551,-3.4597,-3.4496,-3.4643,-3.465,-3.4656,-3.4762,-3.4779,-3.4793,0,0,0,0,0,-3.4672,-3.4736,-3.4704,-3.4705,-3.4694,-3.4708,-3.4706,-3.4655,-3.461,-3.4637,-3.4607,-3.4555,-3.4591,-3.4553,-3.4555,-3.4602,-3.464,-3.4648,-3.4656,-3.4755,-3.4776,-3.4793,0,0,0,0,0,0,-3.4782,-3.473,-3.4694,-3.4746,-3.4732,-3.469,-3.4723,-3.4678,-3.4677,-3.4667,-3.4605,-3.4598,-3.4644,-3.4626,-3.4585,-3.4672,-3.4607,-3.4616,-3.4682,-3.4701,-3.4716,-3.4719,-3.4497,0,0,0,0,0,-3.4813,-3.4828,-3.4781,-3.4832,-3.4827,-3.4777,-3.4781,-3.4743,-3.4726,-3.4719,-3.4691,-3.4677,-3.4685,-3.4692,-3.4697,-3.4759,-3.475,-3.4792,-3.4807,-3.482,-3.4829,-3.4859,-3.4877,-3.4685,-3.4685,-3.4685,0,0,-3.4876,-3.4849,-3.4862,-3.4854,-3.4838,-3.4855,-3.4772,-3.4794,-3.4807,-3.4723,-3.4756,-3.4735,-3.4715,-3.4765,-3.4785,-3.4752,-3.4879,-3.483,-3.4841,-3.4842,-3.4869,-3.4888,-3.4904,-3.4691,-3.469,-3.4689,0,0,-3.4999,-3.4981,-3.5021,-3.5006,-3.4984,-3.4949,-3.4959,-3.4923,-3.4906,-3.4938,-3.4875,-3.4889,-3.4904,-3.4892,-3.4888,-3.5006,-3.4958,-3.5009,-3.509,-3.512,-3.5136,-3.5149,-3.519,-3.5206,-3.5018,-3.5018,-3.5018,0,-3.5081,-3.5104,-3.5047,-3.5073,-3.5071,-3.4994,-3.5035,-3.5024,-3.5004,-3.5005,-3.4967,-3.4983,-3.4965,-3.501,-3.5039,-3.5038,-3.5047,-3.5013,-3.5138,-3.515,-3.5162,-3.5201,-3.5217,-3.5024,-3.5023,-3.5023,-3.5022,0,-3.5205,-3.5222,-3.5257,-3.5239,-3.5241,-3.5274,-3.5222,-3.5231,-3.5192,-3.5162,-3.5195,-3.517,-3.5168,-3.5176,-3.5139,-3.5216,-3.5196,-3.5149,-3.5082,-3.5187,-3.5223,-3.5238,-3.5033,-3.5031,-3.5029,-3.5028,0,0,-3.5398,-3.5347,-3.5361,-3.5351,-3.532,-3.5332,-3.5361,-3.5358,-3.5367,-3.5355,-3.5378,-3.5392,-3.5348,-3.5344,-3.5305,-3.5332,-3.5426,-3.5281,-3.528,-3.5309,-3.5509,-3.5545,-3.5563,-3.5394,-3.5397,-3.5399,-3.5511,0,-3.5514,-3.5561,-3.551,-3.5567,-3.5582,-3.5509,-3.5534,-3.5518,-3.549,-3.5499,-3.5468,-3.5479,-3.5421,-3.5417,-3.5441,-3.541,-3.5466,-3.5401,-3.5415,-3.5416,-3.5422,-3.5582,-3.5619,-3.5727,-3.5524,-3.5527,-3.5528,0,-3.5656,-3.565,-3.5709,-3.5673,-3.5677,-3.5701,-3.5693,-3.5702,-3.5682,-3.566,-3.5655,-3.5607,-3.5633,-3.5568,-3.5603,-3.556,-3.5562,-3.5548,-3.5551,-3.555,-3.5479,-3.5586,-3.5759,-3.5776,-3.555,-3.5548,-3.5547,0,-3.5791,-3.5798,-3.5833,-3.5827,-3.5786,-3.5804,-3.5788,-3.5764,-3.5765,-3.5759,-3.5759,-3.5756,-3.5755,-3.5754,-3.5707,-3.5664,-3.5747,-3.5678,-3.573,-3.5731,-3.5751,-3.5751,-3.5928,-3.5753,-3.5753,-3.5753,-3.5752,0,-3.5926,-3.5965,-3.5893,-3.5915,-3.5956,-3.5897,-3.5939,-3.5916,-3.5895,-3.5911,-3.5848,-3.5865,-3.5801,-3.5811,-3.5774,-3.5808,-3.5808,-3.5791,-3.5781,-3.5797,-3.5799,-3.5798,-3.5789,-3.5757,-3.5756,-3.5755,-3.5754,0,-3.6084,-3.6037,-3.6071,-3.6029,-3.6019,-3.6051,-3.6015,-3.6033,-3.6001,-3.6022,-3.6024,-3.5973,-3.5982,-3.5934,-3.5934,-3.5909,-3.5961,-3.5938,-3.5968,-3.5961,-3.6015,-3.6011,-3.6198,-3.6219,-3.6031,-3.6033,-3.6035,0,-3.6173,-3.6201,-3.6161,-3.6167,-3.6154,-3.6164,-3.6164,-3.6107,-3.611,-3.6088,-3.611,-3.6112,-3.6111,-3.6128,-3.6091,-3.6091,-3.6067,-3.6133,-3.6067,-3.6081,-3.6068,-3.6067,-3.6069,-3.6147,-3.6149,-3.6151,-3.6153,0,-3.6337,-3.6312,-3.6315,-3.6309,-3.6311,-3.6305,-3.6293,-3.6302,-3.624,-3.6246,-3.6253,-3.6253,-3.6251,-3.6255,-3.6247,-3.623,-3.6181,-3.6174,-3.6185,-3.6202,-3.6218,-3.621,-3.6006,-3.617,-3.6168,-3.6167,-3.6166,-3.6165,-3.6463,-3.6484,-3.6459,-3.6463,-3.6449,-3.644,-3.6455,-3.6424,-3.6428,-3.6422,-3.6388,-3.6402,-3.6379,-3.6363,-3.6351,-3.636,-3.6329,-3.6346,-3.635,-3.6355,-3.6365,-3.6216,-3.6358,-3.6358,-3.6357,-3.6357,-3.6356,0,-3.6623,-3.6603,-3.6608,-3.6594,-3.6597,-3.655,-3.6535,-3.6541,-3.6554,-3.6537,-3.6536,-3.6544,-3.6547,-3.651,-3.6508,-3.6523,-3.65,-3.6524,-3.6522,-3.6519,-3.6393,-3.6383,-3.6542,-3.6542,-3.6542,-3.6542,-3.6542,-3.6542,-3.6707,-3.6739,-3.6712,-3.6736,-3.6715,-3.6727,-3.6723,-3.6714,-3.67,-3.6711,-3.6712,-3.6688,-3.6663,-3.6658,-3.6658,-3.6647,-3.665,-3.6681,-3.6663,-3.6546,-3.6528,-3.6511,-3.6501,-3.6682,-3.6682,-3.6788,-3.6789,-3.6789]},{"header":{"parameterUnit":"m.s-1","parameterCategory":1,"la1":30.2991,"la2":30.254,"lo1":-89.0895,"lo2":-89.0444,"dy":0.0017,"dx":0.0017,"nx":28,"ny":28,"refTime":"2023-11-11T03:00:00:Z","depth":0,"parameterNumber":3,"parameterNumberName":"V-component_of_WINDS"},"data":[0,0,0,0,0,0,0,0,0,0,0,0,0,0,0,0,0,0,0,0,0,0,0,0,0,0,0,0,0,0,0,0,0,0,0,0,0,0,0,0,0,0,0,0,0,0,0,0,0,0,0,0,0,0,0,0,0,0,-3.588,-3.588,0,-3.5909,-3.5909,-3.5909,-3.5869,-3.5868,-3.5866,-3.5865,-3.5891,-3.5893,-3.5895,0,0,0,0,0,0,0,0,0,0,0,0,0,-3.5787,-3.5789,-3.588,-3.588,-3.5881,-3.5909,-3.5909,-3.5909,-3.5869,-3.5868,-3.5866,-3.5864,-3.589,-3.5893,-3.5895,0,0,0,0,0,0,0,0,0,0,0,0,0,-3.5823,-3.579,-3.588,-3.5864,-3.5863,-3.5908,-3.5909,-3.5909,-3.587,-3.5867,-3.5865,-3.5863,-3.589,-3.5893,-3.5896,-3.5957,0,0,-3.5905,-3.5906,0,0,0,0,0,0,0,0,-3.5821,-3.5826,-3.5866,-3.5865,-3.5864,-3.5883,-3.5886,-3.5925,-3.587,-3.5867,-3.5865,-3.5862,-3.589,-3.5893,-3.5903,-3.5958,-3.5959,-3.5905,-3.5907,-3.5908,-3.5909,0,0,0,0,0,0,0,-3.5818,-3.5825,-3.5891,-3.5867,-3.5866,-3.5854,-3.5857,-3.5893,-3.589,-3.5867,-3.5864,-3.5868,-3.5889,-3.59,-3.5903,-3.596,-3.5905,-3.5908,-3.591,-3.5911,-3.6066,-3.6068,0,0,0,0,0,0,-3.5818,-3.5823,-3.589,-3.5892,-3.5837,-3.5858,-3.5861,-3.5879,-3.589,-3.5889,-3.587,-3.5866,-3.5896,-3.59,-3.5904,-3.5976,-3.5908,-3.5911,-3.5913,-3.6063,-3.6066,-3.6069,0,0,0,0,0,0,-3.5816,-3.5825,-3.5889,-3.5857,-3.5864,-3.5862,-3.5883,-3.5881,-3.5892,-3.5892,-3.5891,-3.5882,-3.5894,-3.59,-3.5944,-3.5976,-3.5912,-3.5915,-3.6061,-3.6064,-3.6067,-3.6121,0,0,0,0,0,0,-3.5814,-3.5824,-3.5848,-3.5858,-3.5866,-3.593,-3.5885,-3.5883,-3.5897,-3.5893,-3.5903,-3.5902,-3.5893,-3.594,-3.5947,-3.5979,-3.5918,-3.6058,-3.6062,-3.6066,-3.6117,-3.6126,-3.6134,0,0,0,0,0,-3.5811,-3.5862,-3.585,-3.5858,-3.5896,-3.5932,-3.5937,-3.5926,-3.59,-3.5924,-3.5924,-3.5902,-3.5972,-3.5945,-3.5952,-3.5986,-3.6056,-3.6061,-3.6066,-3.6113,-3.6124,-3.6134,0,0,0,0,0,0,-3.5856,-3.5863,-3.585,-3.5906,-3.5919,-3.5925,-3.5955,-3.5939,-3.5958,-3.5953,-3.5937,-3.594,-3.5988,-3.5991,-3.5961,-3.6046,-3.6009,-3.6016,-3.6042,-3.6053,-3.6062,-3.606,-3.592,0,0,0,0,0,-3.5872,-3.5902,-3.5906,-3.5955,-3.5962,-3.5958,-3.5973,-3.5963,-3.5975,-3.5981,-3.5984,-3.5996,-3.602,-3.6037,-3.6059,-3.6117,-3.6118,-3.6144,-3.6152,-3.616,-3.6166,-3.6196,-3.6208,-3.6086,-3.6086,-3.6085,0,0,-3.5906,-3.5914,-3.5933,-3.5964,-3.5973,-3.6003,-3.5962,-3.5996,-3.6017,-3.5985,-3.6028,-3.603,-3.6043,-3.6094,-3.6116,-3.6098,-3.62,-3.6166,-3.6172,-3.6174,-3.6203,-3.6214,-3.6224,-3.6089,-3.6088,-3.6088,0,0,-3.5984,-3.5993,-3.6035,-3.6045,-3.6059,-3.6056,-3.6066,-3.6075,-3.6076,-3.6118,-3.6095,-3.6119,-3.6162,-3.6172,-3.6182,-3.6263,-3.6243,-3.627,-3.6317,-3.6346,-3.6356,-3.6364,-3.6393,-3.6404,-3.6277,-3.6277,-3.6277,0,-3.6025,-3.607,-3.6058,-3.6093,-3.6107,-3.608,-3.6121,-3.6131,-3.6152,-3.6161,-3.6141,-3.6193,-3.62,-3.6253,-3.6272,-3.6282,-3.6292,-3.627,-3.6356,-3.6364,-3.6372,-3.6399,-3.641,-3.628,-3.628,-3.6279,-3.6279,0,-3.6119,-3.6151,-3.6182,-3.6204,-3.6221,-3.6259,-3.6252,-3.627,-3.6259,-3.6257,-3.63,-3.6307,-3.633,-3.6342,-3.6331,-3.6393,-3.6381,-3.6358,-3.6321,-3.6387,-3.6412,-3.6422,-3.6285,-3.6283,-3.6282,-3.6282,0,0,-3.6227,-3.6241,-3.6253,-3.6262,-3.6276,-3.6299,-3.6335,-3.6359,-3.6375,-3.639,-3.6419,-3.6456,-3.6435,-3.6447,-3.6436,-3.6462,-3.6525,-3.6436,-3.6436,-3.6453,-3.6594,-3.6611,-3.6624,-3.6512,-3.6514,-3.6516,-3.6593,0,-3.6304,-3.6369,-3.6358,-3.642,-3.6448,-3.6423,-3.6454,-3.6465,-3.6464,-3.6487,-3.6485,-3.6512,-3.6482,-3.6489,-3.6513,-3.6513,-3.6554,-3.6507,-3.6539,-3.654,-3.6537,-3.6637,-3.6655,-3.6728,-3.6603,-3.6605,-3.6606,0,-3.6404,-3.6424,-3.6488,-3.6497,-3.6509,-3.6537,-3.6558,-3.658,-3.6592,-3.6589,-3.6602,-3.6587,-3.6622,-3.6584,-3.6632,-3.66,-3.6612,-3.6614,-3.6616,-3.6619,-3.6577,-3.6643,-3.6751,-3.6762,-3.6621,-3.662,-3.6619,0,-3.6476,-3.6518,-3.6563,-3.6571,-3.6582,-3.6603,-3.6608,-3.6618,-3.6633,-3.665,-3.6659,-3.668,-3.6692,-3.6708,-3.6698,-3.6671,-3.6747,-3.6708,-3.6745,-3.6745,-3.6763,-3.6762,-3.6875,-3.677,-3.677,-3.677,-3.6769,0,-3.6565,-3.6605,-3.6595,-3.6622,-3.6667,-3.6654,-3.6697,-3.6699,-3.6708,-3.6734,-3.6712,-3.6737,-3.6723,-3.6746,-3.6738,-3.6779,-3.6784,-3.6782,-3.678,-3.6784,-3.6785,-3.6793,-3.6787,-3.6773,-3.6772,-3.6771,-3.6771,0,-3.6653,-3.6648,-3.6694,-3.6701,-3.6704,-3.6736,-3.6741,-3.6766,-3.6763,-3.6797,-3.6804,-3.6799,-3.6825,-3.6817,-3.6845,-3.684,-3.6891,-3.6882,-3.6888,-3.6886,-3.6923,-3.692,-3.7045,-3.7061,-3.6946,-3.6947,-3.6948,0,-3.671,-3.6741,-3.6751,-3.6768,-3.6775,-3.6802,-3.6817,-3.6804,-3.6821,-3.6836,-3.6859,-3.6883,-3.6902,-3.6945,-3.6944,-3.6965,-3.6956,-3.6999,-3.6959,-3.6963,-3.6957,-3.6955,-3.6958,-3.7007,-3.7008,-3.7009,-3.701,0,-3.6812,-3.6807,-3.6831,-3.6853,-3.6872,-3.6888,-3.6903,-3.6917,-3.6905,-3.6925,-3.6952,-3.6967,-3.6996,-3.702,-3.7039,-3.7043,-3.7025,-3.7022,-3.7032,-3.7037,-3.704,-3.7039,-3.691,-3.702,-3.7019,-3.7018,-3.7017,-3.7017,-3.6886,-3.6912,-3.6923,-3.695,-3.6959,-3.6973,-3.6997,-3.6997,-3.702,-3.7043,-3.7034,-3.7065,-3.7075,-3.7098,-3.7105,-3.7129,-3.7112,-3.7126,-3.713,-3.7133,-3.7138,-3.7036,-3.7132,-3.7132,-3.7131,-3.7131,-3.7131,0,-3.6986,-3.6992,-3.7017,-3.7038,-3.7058,-3.704,-3.7054,-3.7072,-3.7101,-3.7111,-3.7131,-3.7162,-3.7185,-3.7185,-3.7207,-3.7225,-3.7217,-3.7232,-3.723,-3.7231,-3.7152,-3.7141,-3.7238,-3.7238,-3.7238,-3.7238,-3.7238,-3.7238,-3.7041,-3.7084,-3.7081,-3.7128,-3.7134,-3.7165,-3.7175,-3.7187,-3.7196,-3.7232,-3.7251,-3.7251,-3.7258,-3.728,-3.73,-3.7299,-3.7308,-3.7326,-3.7322,-3.7248,-3.7237,-3.7227,-3.7217,-3.7328,-3.7328,-3.7399,-3.74,-3.7401]}]]